Lexington Weather

Lexington, Massachusetts, USA

27°F
1/25/2021 9:39pm 
  • Lexington Conditions: Clear
  • Temperature: 27.1°F / -2.7°CColder 0.9°F than last hour.
  • Dew Point: 15.4°FIncreased 0.1°Fsince last hour.
  • Relative Humidity: 61%Increased 3.0% since last hour.
  • Wind: Wind from N N 3 mph, 10-min avg: 2 mph, gust: 7 mph
  • Barometer: 30.05 in Steady
  • Visibility: 10 miles
  • Snow Today: 0.0 in
  •   

Regional Weather Roundup
for Boston / Norton, MA

        
000
ASUS41 KBOX 241804
RWRBOX

REGIONAL WEATHER ROUNDUP
NATIONAL WEATHER SERVICE BOSTON/NORTON MA
100 PM EST SUN JAN 24 2021

NOTE:  "FAIR" INDICATES FEW OR NO CLOUDS BELOW 12,000 FEET WITH NO 
SIGNIFICANT WEATHER AND/OR OBSTRUCTIONS TO VISIBILITY.

MAZALL-241900-
EASTERN MASSACHUSETTS
  
CITY           SKY/WX    TMP DP  RH WIND       PRES   REMARKS
BOSTON         MOSUNNY   29   0  28 NW23G37   29.88F WCI  15          
6HR MIN TEMP:  18; 6HR MAX TEMP:  29;                                

BEVERLY        SUNNY     31   0  26 NW25G37   29.83F WCI  17          
LAWRENCE       SUNNY     29   3  33 NW16G37   29.88F WCI  17          
BEDFORD        SUNNY     29   1  30 W30G39    29.88F WCI  13          
BLUE HILL        N/A     27   3  35 NW23G37   29.82F WCI  12          
NORWOOD        SUNNY     32   0  25 NW21G30   29.90F WCI  20          
MARSHFIELD     SUNNY     32   0  25 NW14G25   29.86F WCI  22          
PLYMOUTH       SUNNY     30   0  27 W21G29    29.86F WCI  17          
TAUNTON        SUNNY     32   0  25 W15G23    29.90F WCI  22          
NEW BEDFORD    SUNNY     30   1  29 W16G35    29.90F WCI  19          
$$

MAZALL-241900-
CAPE COD AND THE ISLANDS
  
CITY           SKY/WX    TMP DP  RH WIND       PRES   REMARKS
FALMOUTH       SUNNY     30  -2  24 NW23G29   29.88F WCI  17          
HYANNIS        SUNNY     32   0  25 W20G29    29.83F WCI  20          
CHATHAM        SUNNY     31   5  33 NW16G32   29.83F WCI  20          
PROVINCETOWN   SUNNY     30  13  49 NW26G40   29.84F WCI  16          
NANTUCKET      SUNNY     30   7  37 W26G36    29.87F WCI  16          
MARTHAS VNYRD  SUNNY     31   4  31 NW21G31   29.90F WCI  18          
$$
 
MAZALL-241900-
CENTRAL AND WESTERN MASSACHUSETTS
  
CITY           SKY/WX    TMP DP  RH WIND       PRES   REMARKS
WORCESTER      SUNNY     24  -1  33 NW21G37   29.89F WCI   9          
6HR MIN TEMP:  12; 6HR MAX TEMP:  24;                                

FITCHBURG      SUNNY     28   1  31 W24G31    29.92F WCI  14          
ORANGE         SUNNY     26  -1  31 NW20      29.97F WCI  12          
SPRINGFIELD    NOT AVBL                                               
WESTFIELD      SUNNY     27  -3  27 NW13G24   30.02F WCI  16          
NORTH ADAMS    SUNNY     19  -1  41 NW8G22    30.05F WCI   9          
PITTSFIELD     SUNNY     16  -2  45 NW16G23   30.01F WCI   1          
$$
 
RIZALL-241900-
RHODE ISLAND
  
CITY           SKY/WX    TMP DP  RH WIND       PRES   REMARKS
PROVIDENCE     MOSUNNY   30  -1  26 W24G32    29.95F WCI  16          
6HR MIN TEMP:  16; 6HR MAX TEMP:  30;                                

NEWPORT        SUNNY     29   0  28 NW20G35   29.93F WCI  16          
BLOCK ISLAND   SUNNY     28   5  37 NW15G28   29.98F WCI  16          
SMITHFIELD     SUNNY     28   2  32 NW14G22   29.92F WCI  17          
WESTERLY       SUNNY     27  -4  26 NW12G24   30.00F WCI  17          
$$
 
CTZALL-241900-
CONNECTICUT
  
CITY           SKY/WX    TMP DP  RH WIND       PRES   REMARKS
BRADLEY INTL   MOSUNNY   27  -6  23 NW21G31   30.03F WCI  13          
6HR MIN TEMP:  14; 6HR MAX TEMP:  28;                                

HARTFORD       SUNNY     29  -6  22 NW18G29   30.05F WCI  16          
BRIDGEPORT     SUNNY     31   1  28 NW15G22   30.08F WCI  20          
DANBURY        SUNNY     28   1  31 W13G24    30.07F WCI  17          
GROTON         SUNNY     30  -2  25 NW14G26   30.01F WCI  19          
NEW HAVEN      SUNNY     30   4  33 NW17G28   30.07F WCI  18          
CHESTER        FAIR      28  -4  24 NW8G25    30.01F WCI  20          
MERIDEN        SUNNY     28  -1  28 W13G32    30.06F WCI  17          
WILLIMANTIC    SUNNY     27  -1  30 W15G29    30.01F WCI  15          
OXFORD         SUNNY     24   2  38 NW15G28   30.04F WCI  11          
$$

MEZ002-015-021-024-NHZ003-005-008-011-012-014-VTZ005-008-241900-
NORTHERN NEW ENGLAND
  
CITY           SKY/WX    TMP DP  RH WIND       PRES   REMARKS
PORTLAND ME    SUNNY     29  10  45 NW23G33   29.77F WCI  15          
6HR MIN TEMP:  16; 6HR MAX TEMP:  29;                                

BANGOR ME      MOSUNNY   22   4  46 NW16G30   29.68S WCI   8          
CONCORD NH     SUNNY     25   2  37 NW26G37   29.87F WCI   9          
MANCHESTER NH  SUNNY     28   2  32 NW15G28   29.88F WCI  16          
NASHUA NH      SUNNY     28   4  35 W16G24    29.91F WCI  16          
PORTSMOUTH NH  NOT AVBL                                               
JAFFREY NH     SUNNY     23  -1  35 NW9G23    29.90F WCI  13          
KEENE NH       SUNNY     25   3  38 N14G23    29.97F WCI  13          
BURLINGTON VT  MOSUNNY   19   2  47 N8        30.08F WCI   9          
MT. WASHINGTON NOT AVBL                                               
$$

NYZ052-076-241900-
EASTERN NEW YORK
  
CITY           SKY/WX    TMP DP  RH WIND       PRES   REMARKS
ALBANY         MOSUNNY   18  -1  43 NW16G25   30.14F WCI   3          
6HR MIN TEMP:   6; 6HR MAX TEMP:  19;                                

NEW YORK CITY  MOSUNNY   32   6  33 NW16G25   30.12F WCI  21          
6HR MIN TEMP:  24; 6HR MAX TEMP:  32;                                

$$
 
ANZALL-241900-
MARINE OBSERVATIONS
  
STATION/POSITION TIME  TEMP    WIND        PRES    VSBY  WAVE
                       AIR SEA DIR/SP/G                  HT/PER
                 (UTC) (F)     (DEG/KT/KT) (MB)    (MI)  (FT/S)
BOSTON BUOY      1740   30 42  290/ 25/ 33 1011.5F
BUZZARDS BAY     1700          310/ 31/ 34 1014.7F
NANTUCKET SOUND  1740      38  290/ 23/ 31   N/A
MASS BAY-STELLWA 1704   29     290/ 23/ 29 1009.8F  1 1/2  5/ 5
ISLE OF SHOALS   1700   25     290/ 30/ 33 1008.5F
S OF BLOCK IS    1726      47                N/A           8/ 6
$$

......................KEY.........................
  SKY/WX - SKY CONDITION/PRESENT WEATHER
  TMP    - TEMPERATURE IN FAHRENHEIT
  DWPT   - DEWPOINT IN FAHRENHEIT
  RH     - RELATIVE HUMIDITY IN PERCENT
  WIND   - DIRECTION AND SPEED IN MPH
  PRES   - MEAN SEA LEVEL PRESSURE IN INCHES OF HG
  WCI    - WIND CHILL INDEX
  VSB    - VISIBILITY IN MILES
  HX     - HEAT INDEX
  TC     - TEMPERATURE IN CELSIUS
  VRB    - VARIABLE WIND DIRECTION
  N/A    - NOT AVAILABLE
  
      

Other recent Regional Weather Roundups

Mon Jan 25, 9:05pm

Mon Jan 25, 8:04pm

Mon Jan 25, 7:04pm

Mon Jan 25, 6:05pm

Mon Jan 25, 5:04pm

Mon Jan 25, 4:04pm

Mon Jan 25, 3:04pm

Mon Jan 25, 2:05pm

Mon Jan 25, 1:04pm

Mon Jan 25, 12:05pm

Mon Jan 25, 11:04am

Mon Jan 25, 10:04am

Mon Jan 25, 9:04am

Mon Jan 25, 8:05am

Mon Jan 25, 6:04am

Mon Jan 25, 5:04am

Mon Jan 25, 4:04am

Mon Jan 25, 3:04am

Mon Jan 25, 2:04am

Mon Jan 25, 1:04am

Sun Jan 24, 11:04pm

Sun Jan 24, 10:04pm

Sun Jan 24, 9:04pm

Sun Jan 24, 6:04pm

Sun Jan 24, 5:04pm

Sun Jan 24, 4:05pm

Sun Jan 24, 3:05pm

Sun Jan 24, 2:05pm

Sun Jan 24, 12:04pm

Sun Jan 24, 11:04am

Sun Jan 24, 10:04am

Sun Jan 24, 9:04am

Sun Jan 24, 8:04am

Sun Jan 24, 7:04am

Sun Jan 24, 6:04am

Sun Jan 24, 5:04am

Sun Jan 24, 4:04am

Sun Jan 24, 3:04am

Sun Jan 24, 2:04am

Sun Jan 24, 1:04am

Sun Jan 24, 12:04am

Sat Jan 23, 11:04pm

Sat Jan 23, 10:04pm

Sat Jan 23, 9:04pm

Sat Jan 23, 8:04pm

Sat Jan 23, 7:04pm

Sat Jan 23, 6:04pm

Sat Jan 23, 5:04pm

Sat Jan 23, 4:05pm

Sat Jan 23, 3:05pm

Sat Jan 23, 2:05pm

Sat Jan 23, 12:04pm

Sat Jan 23, 11:04am

Sat Jan 23, 10:04am

Sat Jan 23, 9:04am

Sat Jan 23, 8:04am

Sat Jan 23, 7:04am

Sat Jan 23, 6:04am

Sat Jan 23, 5:04am

Sat Jan 23, 4:04am

Meta data:

ID: 0f412d25-7584-46bc-be8b-a2ad6c1e76d7
Link: https://api.weather.gov/products/0f412d25-7584-46bc-be8b-a2ad6c1e76d7